Weather History for PAKW - December, 2012

Change the Weather History Date:

Wednesday, December 12, 2012

  Actual Average Record
Temperature  
Mean Temperature 34 °F -  
Max Temperature 41 °F 38 °F 57 °F (2005)
Min Temperature 28 °F 30 °F 28 °F (2000)
Degree Days  
Heating Degree Days 32    
Moisture  
Dew Point 33 °F    
Average Humidity 94    
Maximum Humidity 100    
Minimum Humidity 86    
Precipitation  
Precipitation 0.53 in - - ()
Sea Level Pressure  
Sea Level Pressure 29.76 in    
Wind  
Wind Speed 1 mph (SE)    
Max Wind Speed 8 mph    
Max Gust Speed 20 mph    
Visibility 7 miles    
Events Rain    
Averages and records for this station are not official NWS values.
T = Trace of Precipitation, MM = Missing Value Source: NWS Daily Summary

Daily Weather History Graph

Daily Weather History Graph

Search for Another Location

Airport or City:

Trip Planner

Search our weather history database for the weather conditions in past years. The results will help you decide how hot, cold, wet, or windy it might be!

Date:

Astronomy

Dec. 12, 2012 Rise Set
Actual Time 8:12 AM AKST 3:20 PM AKST
Civil Twilight 7:26 AM AKST 4:06 PM AKST
Nautical Twilight 6:37 AM AKST 4:54 PM AKST
Astronomical Twilight 5:52 AM AKST 5:39 PM AKST
Moon 7:21 AM AKST (12/12) 3:07 PM AKST (12/12)
Length of Visible Light 8h 40m
Length of Day
7h 07m
Waning Crescent, 0% of the Moon is Illuminated
Dec 12
Waning Crescent
Dec 12
New
Dec 19
First Quarter
Dec 28
Full
Jan 4
Last Quarter

Hourly Weather History & Observations

Time (AKST) Temp. Windchill Dew Point Humidity Pressure Visibility Wind Dir Wind Speed Gust Speed Precip Events Conditions
12:53 AM 30.0 °F - 28.0 °F 92% 29.85 in 10.0 mi Calm Calm - N/A   Clear
1:53 AM 28.9 °F - 28.0 °F 96% 29.87 in 10.0 mi Calm Calm - N/A   Clear
3:53 AM 28.9 °F - 27.0 °F 92% 29.88 in 10.0 mi Calm Calm - N/A   Clear
4:53 AM 28.9 °F - 28.0 °F 96% 29.89 in 10.0 mi Calm Calm - N/A   Clear
5:53 AM 28.9 °F - 28.0 °F 96% 29.88 in 10.0 mi Calm Calm - N/A   Partly Cloudy
6:53 AM 30.0 °F - 28.0 °F 92% 29.88 in 10.0 mi Calm Calm - N/A   Mostly Cloudy
7:21 AM 30.2 °F - 28.4 °F 93% 29.87 in 10.0 mi Calm Calm - N/A   Overcast
7:51 AM 30.2 °F - 28.4 °F 93% 29.87 in 10.0 mi Calm Calm - N/A   Overcast
7:53 AM 30.0 °F - 28.9 °F 96% 29.87 in 10.0 mi Calm Calm - N/A   Overcast
8:53 AM 30.9 °F - 30.0 °F 96% 29.88 in 10.0 mi Calm Calm - N/A   Overcast
9:53 AM 32.0 °F - 30.9 °F 96% 29.88 in 10.0 mi Calm Calm - N/A   Overcast
10:53 AM 33.1 °F - 32.0 °F 96% 29.86 in 10.0 mi Calm Calm - N/A   Overcast
11:18 AM 32.0 °F - 32.0 °F 100% 29.85 in 1.8 mi Calm Calm - 0.00 in   Overcast
11:36 AM 33.8 °F - 32.0 °F 93% 29.84 in 2.0 mi Calm Calm - 0.00 in   Overcast
11:44 AM 33.8 °F 30.8 °F 32.0 °F 93% 29.84 in 8.0 mi North 3.5 mph - 0.00 in   Overcast
11:53 AM 33.1 °F - 32.0 °F 96% 29.84 in 10.0 mi Calm Calm - 0.00 in Rain Light Rain
12:53 PM 33.1 °F - 32.0 °F 96% 29.83 in 3.0 mi Calm Calm - 0.02 in Rain Light Rain
1:29 PM 33.8 °F 29.6 °F 33.8 °F 100% 29.81 in 3.0 mi North 4.6 mph - 0.02 in Rain Light Rain
1:34 PM 33.8 °F - 33.8 °F 100% 29.81 in 2.5 mi Calm Calm - 0.03 in Rain Light Rain
1:49 PM 33.8 °F - 33.8 °F 100% 29.80 in 4.0 mi Calm Calm - 0.03 in Rain Light Rain
1:53 PM 34.0 °F - 33.1 °F 96% 29.81 in 4.0 mi Calm Calm - 0.03 in Rain Light Rain
2:09 PM 33.8 °F - 33.8 °F 100% 29.79 in 3.0 mi Calm Calm - 0.01 in Rain Light Rain
2:21 PM 33.8 °F - 33.8 °F 100% 29.79 in 3.0 mi Calm Calm - 0.02 in Rain Light Rain
2:30 PM 33.8 °F - 33.8 °F 100% 29.78 in 2.5 mi Calm Calm - 0.03 in Rain Light Rain
2:35 PM 33.8 °F - 33.8 °F 100% 29.78 in 3.0 mi Calm Calm - 0.04 in Rain Light Rain
2:53 PM 35.1 °F - 33.1 °F 92% 29.78 in 3.0 mi Calm Calm - 0.06 in Rain Light Rain
3:53 PM 35.1 °F - 34.0 °F 96% 29.74 in 7.0 mi Calm Calm - 0.06 in Rain Light Rain
4:53 PM 37.9 °F 35.5 °F 35.1 °F 89% 29.70 in 10.0 mi Variable 3.5 mph - 0.06 in Rain Light Rain
5:53 PM 37.9 °F 35.5 °F 35.1 °F 89% 29.66 in 6.0 mi Variable 3.5 mph - 0.08 in Rain Light Rain
6:53 PM 37.9 °F 35.5 °F 35.1 °F 89% 29.62 in 10.0 mi Variable 3.5 mph - 0.05 in Rain Light Rain
7:21 PM 37.4 °F 33.8 °F 35.6 °F 93% 29.61 in 10.0 mi Variable 4.6 mph - 0.02 in Rain Light Rain
7:48 PM 37.4 °F 34.9 °F 35.6 °F 93% 29.62 in 7.0 mi Variable 3.5 mph - 0.04 in Rain Light Rain
7:53 PM 37.9 °F 34.4 °F 36.0 °F 93% 29.62 in 6.0 mi Variable 4.6 mph - 0.05 in Rain Light Rain
8:53 PM 39.0 °F 33.4 °F 36.0 °F 89% 29.57 in 10.0 mi SSE 8.1 mph - 0.01 in   Overcast
9:23 PM 39.2 °F 34.2 °F 35.6 °F 87% 29.54 in 10.0 mi Variable 6.9 mph - 0.01 in Rain Light Rain
9:53 PM 39.9 °F 35.1 °F 36.0 °F 86% 29.53 in 10.0 mi Variable 6.9 mph 18.4 mph 0.02 in Rain Light Rain
10:08 PM 39.2 °F 33.6 °F 35.6 °F 87% 29.52 in 10.0 mi SSE 8.1 mph 19.6 mph 0.00 in Rain Light Rain
10:53 PM 39.9 °F 35.1 °F 37.0 °F 89% 29.52 in 5.0 mi SSE 6.9 mph - 0.04 in Rain Light Rain
11:53 PM 41.0 °F 36.4 °F 37.9 °F 89% 29.50 in 8.0 mi Variable 6.9 mph 16.1 mph 0.05 in Rain Light Rain